Seattle, WA

5:39 AM PST on February 24, 2017 (GMT -0800)
Renton Municipal

Weather History for KRNT - August, 2013

Change the Weather History Date:

Wednesday, August 7, 2013

  Actual Average Record
Temperature  
Mean Temperature 72 °F -  
Max Temperature 86 °F 77 °F 86 °F (2013)
Min Temperature 59 °F 57 °F 52 °F (2002)
Cooling Degree Days 6    
Growing Degree Days 22 (Base 50)    
Moisture  
Dew Point 55 °F    
Average Humidity 59    
Maximum Humidity 87    
Minimum Humidity 32    
Precipitation  
Precipitation 0.00 in - - ()
Sea Level Pressure  
Sea Level Pressure 29.99 in    
Wind  
Wind Speed 3 mph (WNW)    
Max Wind Speed 10 mph    
Max Gust Speed -    
Visibility 10 miles    
Events      
Averages and records for this station are not official NWS values.
T = Trace of Precipitation, MM = Missing Value Source: NWS Daily Summary

Daily Weather History Graph

Daily Weather History Graph

Search for Another Location

Airport or City:

Trip Planner

Search our weather history database for the weather conditions in past years. The results will help you decide how hot, cold, wet, or windy it might be!

Date:

Astronomy

Aug. 07, 2013 Rise Set
Actual Time 5:54 AM PDT 8:33 PM PDT
Civil Twilight 5:19 AM PDT 9:08 PM PDT
Nautical Twilight 4:35 AM PDT 9:52 PM PDT
Astronomical Twilight 3:43 AM PDT 10:43 PM PDT
Moon 6:57 AM PDT (8/7) 8:32 PM PDT (8/7)
Length of Visible Light 15h 48m
Length of Day
14h 38m
New Moon, 1% of the Moon is Illuminated
Aug 7
New Moon
Aug 14
First Quarter
Aug 20
Full
Aug 28
Last Quarter
Sep 5
New

Hourly Weather History & Observations

Time (PDT) Temp. Heat Index Dew Point Humidity Pressure Visibility Wind Dir Wind Speed Gust Speed Precip Events Conditions
12:53 AM 66.0 °F - 57.0 °F 73% 29.98 in 10.0 mi Calm Calm - N/A   Clear
1:53 AM 64.0 °F - 55.9 °F 75% 29.98 in 10.0 mi Calm Calm - N/A   Clear
2:53 AM 62.1 °F - 55.9 °F 80% 29.98 in 9.0 mi Calm Calm - N/A   Clear
3:53 AM 61.0 °F - 55.0 °F 81% 29.99 in 9.0 mi Calm Calm - N/A   Clear
4:53 AM 59.0 °F - 55.0 °F 87% 29.99 in 9.0 mi Calm Calm - N/A   Clear
5:53 AM 59.0 °F - 55.0 °F 87% 29.99 in 8.0 mi Calm Calm - N/A   Clear
6:53 AM 59.0 °F - 55.0 °F 87% 30.00 in 8.0 mi SE 3.5 mph - N/A   Clear
7:53 AM 63.0 °F - 55.9 °F 78% 30.02 in 8.0 mi SSE 4.6 mph - N/A   Clear
8:53 AM 64.9 °F - 55.9 °F 73% 30.03 in 8.0 mi SSE 4.6 mph - N/A   Clear
9:53 AM 69.1 °F - 57.0 °F 65% 30.03 in 9.0 mi SE 4.6 mph - N/A   Clear
10:53 AM 72.0 °F - 57.9 °F 61% 30.03 in 9.0 mi SSE 5.8 mph - N/A   Clear
11:53 AM 73.9 °F - 55.9 °F 53% 30.02 in 10.0 mi Variable 3.5 mph - N/A   Clear
12:53 PM 77.0 °F - 55.9 °F 48% 30.01 in 10.0 mi WNW 4.6 mph - N/A   Clear
1:53 PM 80.1 °F 80.1 °F 55.0 °F 42% 30.00 in 10.0 mi NNW 5.8 mph - N/A   Clear
2:53 PM 82.0 °F 81.6 °F 55.9 °F 41% 29.99 in 10.0 mi NNW 5.8 mph - N/A   Clear
3:53 PM 84.0 °F 82.9 °F 55.0 °F 37% 29.97 in 10.0 mi NNW 6.9 mph - N/A   Clear
4:53 PM 84.9 °F - 52.0 °F 32% 29.96 in 10.0 mi NW 9.2 mph - N/A   Clear
5:53 PM 84.0 °F 83.3 °F 57.0 °F 40% 29.95 in 10.0 mi NW 10.4 mph - N/A   Clear
6:53 PM 82.9 °F 82.0 °F 55.0 °F 38% 29.95 in 10.0 mi NW 8.1 mph - N/A   Clear
7:53 PM 81.0 °F 80.4 °F 53.1 °F 38% 29.96 in 10.0 mi WNW 6.9 mph - N/A   Clear
8:53 PM 78.1 °F - 54.0 °F 43% 29.97 in 10.0 mi WNW 5.8 mph - N/A   Clear
9:53 PM 75.0 °F - 55.0 °F 50% 29.98 in 10.0 mi WNW 5.8 mph - N/A   Clear
10:53 PM 73.0 °F - 55.0 °F 53% 30.00 in 10.0 mi West 3.5 mph - N/A   Clear
11:53 PM 70.0 °F - 55.0 °F 59% 30.01 in 10.0 mi Calm Calm - N/A   Clear